Weather Roundup
Issued by NWS

Home | Current Version | Previous Version | Graphics & Text | Print | Product List | Glossary Off
Versions: 1 2 3 4 5 6 7 8 9 10 11 12 13 14 15 16 17 18 19 20 21 22 23 24 25 26 27 28 29 30 31 32 33 34 35 36 37 38 39 40 41 42 43 44 45 46 47 48 49 50

000
NZUS93 KARX 230259
HRRWXR

CURRENT HOURLY OBSERVATIONS ACROSS
MUCH OF THE UPPER MISSISSIPPI VALLEY
NATIONAL WEATHER SERVICE LA CROSSE WI
1000 PM CDT FRI JUL 22 2016


...SOUTHEAST MINNESOTA...


CITY           SKY/WX    TMP DP  RH WIND       PRES   REMARKS
ROCHESTER      CLEAR     80  76  87 E8        30.01R
ROCHESTER/MAYO FAIR      82  70  66 E5        30.00R
WINONA         CLEAR     79  72  78 CALM      29.97R
AUSTIN         CLEAR     79  75  89 CALM      29.99R
ALBERT LEA     CLEAR     81  79  94 S3        29.99R
DODGE CENTER   PTCLDY    75  70  83 E3        30.01R
PRESTON        PTCLDY    79  76  89 S6        30.01R
OWATONNA       PTCLDY    79  72  78 E5        29.99R
FARIBAULT      CLOUDY    75  72  88 CALM      29.99R
$$

...ELSEWHERE IN MINNESOTA...


CITY           SKY/WX    TMP DP  RH WIND       PRES   REMARKS
MINNEAPOLIS    CLOUDY    84  63  49 SE7       29.97R
INTNL FALLS    CLEAR     61  59  93 CALM      29.98R
DULUTH         CLEAR     74  59  59 NW3       29.99R
RED WING       CLEAR     75  70  83 CALM      29.97R
REDWOOD FALLS  PTCLDY    81  69  67 E8        29.95R
MANKATO        MOCLDY    81  70  69 E7        29.97R
WORTHINGTON    CLOUDY    80  79  96 E8        29.97S
FAIRMONT       MOCLDY    81  48  32 E6        29.97R
$$

...SOUTHWEST WISCONSIN...


CITY           SKY/WX    TMP DP  RH WIND       PRES   REMARKS
LA CROSSE      CLEAR     84  74  71 CALM      29.96R HX  91
PRAIRIE DU CHI PTCLDY    80  76  88 CALM      29.97R
BOSCOBEL       CLEAR     80  78  94 CALM      29.98R
LONE ROCK      NOT AVBL
PLATTEVILLE    CLEAR     80  79  98 S3        30.00S
FORT MC COY    CLEAR     76  75  95 CALM      29.98R
CAMP DOUGLAS   FOG       72  72 100 NW1       29.97S VSB 1
MAUSTON-NEW LI CLEAR     77  75  95 CALM      29.97R
VIROQUA        FAIR      79  78  96 S3        30.01R
WIS DELLS      NOT AVBL
$$

...ELSEWHERE IN WISCONSIN...


CITY           SKY/WX    TMP DP  RH WIND       PRES   REMARKS
MILWAUKEE      PTCLDY    79  71  76 S3        29.98R
MADISON        PTCLDY    79  76  90 CALM      29.98R
GREEN BAY      CLEAR     77  72  84 W3        29.95R
EAU CLAIRE     NOT AVBL
BLACK RVR FLS  FAIR      72  72 100 CALM      29.96S
MEDFORD        CLEAR     68  68 100 CALM      30.00S
WAUSAU         CLEAR     79  67  66 CALM      29.97S
WIS RAPIDS     CLEAR     73  67  81 CALM      29.99S
MARSHFIELD     CLEAR     74  67  78 CALM      30.00R
RICE LAKE      PTCLDY    72  69  90 CALM      30.01R
$$

...NORTHEAST IOWA...


CITY           SKY/WX    TMP DP  RH WIND       PRES   REMARKS
WATERLOO       CLEAR     81  76  84 S5        29.97R
DUBUQUE        PTCLDY    78  77  96 S3        30.00R
DECORAH        MOCLDY    79  79 100 CALM      29.99R
MASON CITY     PTCLDY    80  78  94 SE5       30.00R
CHARLES CITY   CLEAR     79  79 100 SE5       29.99R
OELWEIN        CLEAR     79  77  94 CALM      30.00R
$$

...ELSEWHERE IN IOWA...


CITY           SKY/WX    TMP DP  RH WIND       PRES   REMARKS
DES MOINES     PTCLDY    85  78  80 SE9       29.95R HX  96
IOWA CITY      CLEAR     80  77  90 SE6       29.99R
FORT DODGE     PTCLDY    82  79  89 E6        29.98R HX  93
MARSHALLTOWN   CLEAR     80  78  94 SE3       29.97R
CEDAR RAPIDS   CLEAR     79  79 100 S5        29.97R
$$

...NORTHERN ILLINOIS...


CITY           SKY/WX    TMP DP  RH WIND       PRES   REMARKS
CHICAGO-OHARE  MOCLDY    86  74  67 CALM      29.98R HX  94
CHICAGO-MIDWAY PTCLDY    86  71  60 E6        29.97S HX  91
MOLINE         PTCLDY    81  76  84 S5        29.97F
ROCKFORD       PTCLDY    82  76  81 SW5       30.00R
PEORIA         PTCLDY    81  77  88 SW5       30.02R
$$

NOTE: "FAIR" INDICATES FEW OR NO CLOUDS BELOW 12,000 FEET WITH NO
SIGNIFICANT WEATHER AND/OR OBSTRUCTIONS TO VISIBILITY. WIND
SPEEDS ARE IN MILES-PER-HOUR.




USA.gov is the U.S. government's official web portal to all federal, state and local government web resources and services.